This demonstration page uses our WeatherBlox Daily Observations layout. Learn more.

36.17497, -115.13722

Hourly Observations for July 4, 2015

Temp ( °F °C ) Dew Point ( °F °C ) Humidity (%) Winds ( mph kmh ) Pressure ( in mb ) Visibility ( mi km ) Precip ( " mm )
12:53 am 00:53 Clear 94 34.4 49 9.4 21 21 WNW 9 15 29.71 1006 10 16.0934 0 0
1:53 am 01:53 Clear 94 34.4 43 6.1 17 17 WNW 3 6 29.71 1006 10 16.0934 0 0
2:53 am 02:53 Clear 93 33.9 43 6.1 18 18 NW 14 22 29.7 1006 10 16.0934 0 0
3:53 am 03:53 Clear 93 33.9 43 6.1 18 18 S 6 9 29.72 1007 10 16.0934 0 0
4:53 am 04:53 Clear 91 32.8 45 7.2 20 20 NNW 3 6 29.73 1007 10 16.0934 0 0
5:53 am 05:53 Sunny 90 32.2 41 5 18 18 NW 7 11 29.75 1007 10 16.0934 0 0
6:53 am 06:53 Mostly Cloudy 90 32.2 47 8.3 23 23 WNW 8 13 29.78 1009 10 16.0934 0 0
7:53 am 07:53 Partly Cloudy 91 32.8 50 10 25 25 N 6 9 29.8 1009 10 16.0934 0 0
8:53 am 08:53 Sunny 92 33.3 49 9.4 23 23 SSE 3 6 29.82 1010 10 16.0934 0 0
9:53 am 09:53 Mostly Cloudy 93 33.9 48 8.9 21 21 Calm 29.81 1010 10 16.0934 0 0
10:53 am 10:53 Partly Cloudy 96 35.6 44 6.7 17 17 VRB 7 11 29.82 1010 10 16.0934 0 0
11:53 am 11:53 Mostly Cloudy 95 35 45 7.2 18 18 NW 14 22 29.83 1010 10 16.0934 0 0
12:53 pm 12:53 Sunny 98 36.7 45 7.2 16 16 N 9 15 29.81 1010 10 16.0934 0 0
1:53 pm 13:53 Sunny 99 37.2 45 7.2 16 16 S 10 17 29.8 1009 10 16.0934 0 0
2:53 pm 14:53 Sunny 100 37.8 45 7.2 15 15 VRB 6 9 29.78 1009 10 16.0934 0 0
3:53 pm 15:53 Sunny 101 38.3 47 8.3 16 16 SSE 13 20 29.76 1008 10 16.0934 0 0
4:53 pm 16:53 Sunny 99 37.2 48 8.9 18 18 VRB 6 9 29.74 1007 10 16.0934 0 0
5:53 pm 17:53 Sunny 99 37.2 48 8.9 18 18 ESE 7 11 29.72 1007 10 16.0934 0 0
6:53 pm 18:53 Sunny 99 37.2 49 9.4 18 18 ESE 8 13 29.72 1007 10 16.0934 0 0
7:53 pm 19:53 Sunny 97 36.1 49 9.4 20 20 ESE 7 11 29.74 1007 10 16.0934 0 0
8:53 pm 20:53 Clear 96 35.6 49 9.4 20 20 SE 9 15 29.75 1008 10 16.0934 0 0
9:53 pm 21:53 Clear 94 34.4 49 9.4 21 21 ENE 8 13 29.78 1008 10 16.0934 0 0
10:53 pm 22:53 Clear 93 33.9 49 9.4 22 22 NE 8 13 29.78 1009 10 16.0934 0 0
11:53 pm 23:53 Clear 92 33.3 49 9.4 23 23 NW 3 6 29.78 1008 10 16.0934 0 0

Powered by AerisWeather